Satellite: NOAA-14 Catalog number: 23455 Epoch time: 09001.50078107 Element set: 458 Inclination: 098.9278 deg RA of node: 079.6552 deg Eccentricity: 0.0008655 Arg of perigee: 305.5883 deg Mean anomaly: 054.4503 deg Mean motion: 14.13753422 rev/day Decay rate: -2.44e-06 rev/day^2 Epoch rev: 72237 Checksum: 307
Satellite: NOAA-15 Catalog number: 25338 Epoch time: 09001.12201793 Element set: 756 Inclination: 098.5717 deg RA of node: 354.1164 deg Eccentricity: 0.0010604 Arg of perigee: 180.1745 deg Mean anomaly: 179.9411 deg Mean motion: 14.24739248 rev/day Decay rate: -1.9e-07 rev/day^2 Epoch rev: 55298 Checksum: 305
Satellite: RESURS Catalog number: 25394 Epoch time: 08366.74025925 Element set: 107 Inclination: 098.3600 deg RA of node: 041.4300 deg Eccentricity: 0.0001857 Arg of perigee: 010.9351 deg Mean anomaly: 349.1868 deg Mean motion: 14.24177712 rev/day Decay rate: -1.0e-07 rev/day^2 Epoch rev: 54456 Checksum: 277
Satellite: FENGYUN1 Catalog number: 25730 Epoch time: 08366.92339433 Element set: 651 Inclination: 098.7419 deg RA of node: 336.2168 deg Eccentricity: 0.0022994 Arg of perigee: 330.2447 deg Mean anomaly: 029.7413 deg Mean motion: 14.07914268 rev/day Decay rate: 1.52e-06 rev/day^2 Epoch rev: 49678 Checksum: 324
Satellite: OKEAN-0 Catalog number: 25860 Epoch time: 08366.99214097 Element set: 563 Inclination: 097.7678 deg RA of node: 348.9915 deg Eccentricity: 0.0001503 Arg of perigee: 045.0711 deg Mean anomaly: 315.0618 deg Mean motion: 14.73551582 rev/day Decay rate: 1.0e-07 rev/day^2 Epoch rev: 50852 Checksum: 306
Satellite: NOAA-16 Catalog number: 26536 Epoch time: 09001.19297388 Element set: 232 Inclination: 099.1712 deg RA of node: 000.8635 deg Eccentricity: 0.0010820 Arg of perigee: 033.9078 deg Mean anomaly: 326.2821 deg Mean motion: 14.12507301 rev/day Decay rate: 2.57e-06 rev/day^2 Epoch rev: 42672 Checksum: 278
Satellite: NOAA-17 Catalog number: 27453 Epoch time: 09001.05748933 Element set: 244 Inclination: 098.5103 deg RA of node: 065.6982 deg Eccentricity: 0.0010917 Arg of perigee: 249.2643 deg Mean anomaly: 110.7343 deg Mean motion: 14.24030012 rev/day Decay rate: 1.57e-06 rev/day^2 Epoch rev: 33896 Checksum: 286
Satellite: NOAA-18 Catalog number: 28654 Epoch time: 09001.50566668 Element set: 728 Inclination: 098.8920 deg RA of node: 306.1943 deg Eccentricity: 0.0015087 Arg of perigee: 112.0141 deg Mean anomaly: 248.2618 deg Mean motion: 14.11220755 rev/day Decay rate: -1.57e-06 rev/day^2 Epoch rev: 18644 Checksum: 302
/EX SB KEPS @ AMSAT $ORB09001.M Orbital Elements 09001.MISC
HR AMSAT ORBITAL ELEMENTS FOR MANNED AND MISCELLANEOUS SATELLITES FROM WA5QGD FORT WORTH,TX January 1, 2009 Send Subscribe/unsubscribe to KEPS at http://www.amsat.org/mailman/listinfo/keps BID: ORB09001.M TO ALL RADIO AMATEURS BT
Satellite: HUBBLE Catalog number: 20580 Epoch time: 09001.69906998 Element set: 296 Inclination: 028.4688 deg RA of node: 108.4140 deg Eccentricity: 0.0003438 Arg of perigee: 329.8076 deg Mean anomaly: 030.2315 deg Mean motion: 15.00442985 rev/day Decay rate: 2.71e-06 rev/day^2 Epoch rev: 82482 Checksum: 300
Satellite: PO-34 Catalog number: 25520 Epoch time: 09001.91196810 Element set: 155 Inclination: 028.4612 deg RA of node: 288.2570 deg Eccentricity: 0.0005234 Arg of perigee: 289.3678 deg Mean anomaly: 070.6351 deg Mean motion: 15.17278599 rev/day Decay rate: 4.25e-06 rev/day^2 Epoch rev: 56337 Checksum: 310
Satellite: ISS Catalog number: 25544 Epoch time: 09001.56670644 Element set: 977 Inclination: 051.6417 deg RA of node: 079.8207 deg Eccentricity: 0.0007278 Arg of perigee: 149.6545 deg Mean anomaly: 350.5494 deg Mean motion: 15.71913206 rev/day Decay rate: 9.827e-05 rev/day^2 Epoch rev: 57974 Checksum: 337
Satellite: CO-58 Catalog number: 28895 Epoch time: 09001.15554102 Element set: 200 Inclination: 098.0800 deg RA of node: 256.2499 deg Eccentricity: 0.0018441 Arg of perigee: 147.6495 deg Mean anomaly: 212.5905 deg Mean motion: 14.59730023 rev/day Decay rate: 2.84e-06 rev/day^2 Epoch rev: 16936 Checksum: 303
Satellite: FALCON Catalog number: 30776 Epoch time: 08366.52397626 Element set: 472 Inclination: 035.4335 deg RA of node: 036.5676 deg Eccentricity: 0.0001644 Arg of perigee: 289.6160 deg Mean anomaly: 070.4379 deg Mean motion: 15.03136753 rev/day Decay rate: 2.70e-06 rev/day^2 Epoch rev: 9985 Checksum: 315
Satellite: MAST Catalog number: 31126 Epoch time: 09001.16429139 Element set: 493 Inclination: 098.0155 deg RA of node: 063.4170 deg Eccentricity: 0.0095879 Arg of perigee: 078.4267 deg Mean anomaly: 282.7686 deg Mean motion: 14.53468703 rev/day Decay rate: 4.2e-07 rev/day^2 Epoch rev: 9077 Checksum: 314
Satellite: CAPE1 Catalog number: 31130 Epoch time: 09001.45089885 Element set: 492 Inclination: 098.0169 deg RA of node: 062.2485 deg Eccentricity: 0.0104049 Arg of perigee: 081.7312 deg Mean anomaly: 279.5669 deg Mean motion: 14.52022101 rev/day Decay rate: 1.09e-06 rev/day^2 Epoch rev: 9049 Checksum: 284
Satellite: COMPASS Catalog number: 32787 Epoch time: 09001.21751844 Element set: 241 Inclination: 097.9665 deg RA of node: 066.2755 deg Eccentricity: 0.0015226 Arg of perigee: 211.4335 deg Mean anomaly: 148.5970 deg Mean motion: 14.81525312 rev/day Decay rate: 4.15e-06 rev/day^2 Epoch rev: 3672 Checksum: 287
Satellite: AAUSAT2 Catalog number: 32788 Epoch time: 09001.46908595 Element set: 242 Inclination: 097.9666 deg RA of node: 066.5581 deg Eccentricity: 0.0014848 Arg of perigee: 211.3058 deg Mean anomaly: 148.7274 deg Mean motion: 14.81641011 rev/day Decay rate: 3.34e-06 rev/day^2 Epoch rev: 3676 Checksum: 314
Satellite: DO-64 Catalog number: 32789 Epoch time: 09001.82388933 Element set: 254 Inclination: 097.9702 deg RA of node: 066.9837 deg Eccentricity: 0.0015324 Arg of perigee: 208.5927 deg Mean anomaly: 151.4441 deg Mean motion: 14.81576626 rev/day Decay rate: 4.15e-06 rev/day^2 Epoch rev: 3681 Checksum: 329
Satellite: CO-66 Catalog number: 32791 Epoch time: 09001.37702890 Element set: 235 Inclination: 097.9691 deg RA of node: 066.4610 deg Eccentricity: 0.0015467 Arg of perigee: 208.9617 deg Mean anomaly: 151.0742 deg Mean motion: 14.81367676 rev/day Decay rate: 1.23e-06 rev/day^2 Epoch rev: 3671 Checksum: 312
Satellite: RS-30 Catalog number: 32953 Epoch time: 09001.49553471 Element set: 197 Inclination: 082.5010 deg RA of node: 000.2664 deg Eccentricity: 0.0018979 Arg of perigee: 178.4187 deg Mean anomaly: 181.6977 deg Mean motion: 12.42999297 rev/day Decay rate: 1.0e-07 rev/day^2 Epoch rev: 2768 Checksum: 322
/EX